STARLINK-5148, 53978

Orbit data source: Space-Track

STARLINK-5148, 53978 is a payload satellite owned by SpaceX/Seattle (US) in LEO that was launched on Wed, 05 Oct 2022 UTC via an FALCON 9 launch vehicle from the Air Force Western Test Range (AFWTR). Payload-class satellites include a variety of spacecraft equipped with specific instruments for various scientific and technological missions. These include communications satellites like Starlink; space stations such as the ISS; scientific satellites like the Hubble; Earth observation satellites from companies like Planet Labs, Umbra, and HawkEye 360; GPS; miniature CubeSats for education and research; and military/defense satellites.

Loading next visibility...
Identifier
53978, 2022-125Q
Orbit
LEO
Country
Flag of USUS
Related business
Manufacturer
SpaceX/Seattle
Mission
Operational Commercial Communications
Bus & Motor
STARLINK, Unknown motor
Mass
305 kg wet, ~290 kg dry
Launch date (UTC)
2022-10-05 (4 years ago)
Launch vehicle
FALCON 9
Launch site
Air Force Western Test Range (AFWTR)
Object type
Payload
Rocket body
Debris
Shape & HBR
Box + 1 Pan, 10.1 m
Radar Cross Section
13.562 m², Large (>1 m²)

Expand to show TLE details & history
Last TLE update: 2 days ago

TLE from 2 days ago
0 STARLINK-5148
1 53978U 22125Q   26171.23039284 -.00000238  00000-0  31758-5 0  9995
2 53978  53.1615 118.6004 0001482  91.0273 269.0888 15.08832961204877
Epoch: 2026-06-20T05:31Z
TLE epoch observation values (Epoch: 2026-06-20T05:31:45.941Z)
Latitude
-0.00004°
Longitude
127.21095°
Altitude
540.673 km
Speed
7.593 km/s
True Right ascension
07h 54m 24s
True Declination
0° 00' 00"
Sunlit
Object was in daylight at epoch
Visualization orbit readout
Latitude
Unknown
Longitude
Unknown
Altitude
Unknown
Speed
Unknown
Apparent Right ascension
Unknown
Apparent Declination
Unknown
Sunlit
N/A
Visualization observer readout
Local Sidereal Time
21:32:44
Azimuth
Unknown
Elevation
Unknown
Doppler factor
Unknown
Orbital elements
Apogee altitude
541.044 km
Perigee altitude
538.994 km
Semi-major axis
6,918.156 km
Eccentricity
0.00015
Inclination
53.1615°
RAAN
118.6004°
Arg. of periapsis
91.0273°
True anomaly
269.07182°
Mean anomaly
269.0888°
Eccentric anomaly
269.08031°
Mean motion
3.77188 °/min
Orbital period
95.44 mins
BSTAR
0.0000031758
Loading maneuver chart data...
Computing Atmospheric mass density...
Loading historical data...
Loading historical data...
Loading historical data...
Loading historical data...
Loading historical data...
Loading historical data...
Loading historical data...

Documentation

Showing up to 5 results
|